CST,Max TemperatureF,Mean TemperatureF,Min TemperatureF,Max Dew PointF,MeanDew PointF,Min DewpointF,Max Humidity, Mean Humidity, Min Humidity, Max Sea Level PressureIn, Mean Sea Level PressureIn, Min Sea Level PressureIn, Max VisibilityMiles, Mean VisibilityMiles, Min VisibilityMiles, Max Wind SpeedMPH, Mean Wind SpeedMPH, Max Gust SpeedMPH,PrecipitationIn, CloudCover, Events, WindDirDegrees
2012-12-1,86,77,68,68,65,61,88,72,43,30.13,30.06,30.01,10,10,10,20,8,23,0.00,,,149
2012-12-2,86,77,68,66,63,57,88,68,37,30.13,30.07,30.02,10,10,10,15,7,21,0.00,,,141
2012-12-3,86,75,64,64,62,55,94,70,35,30.05,30.00,29.93,10,10,10,20,8,28,0.00,,,151
2012-12-4,87,74,62,68,63,55,94,69,33,30.12,30.05,29.99,10,9,0,13,6,18,0.00,,Fog,181
2012-12-5,79,72,63,66,54,46,88,56,31,30.21,30.11,30.04,10,10,7,16,8,26,0.04,,Thunderstorm,4
2012-12-6,82,67,52,63,60,51,95,68,43,29.99,29.90,29.83,10,9,0,12,4,16,0.00,,Fog,155
2012-12-7,85,74,64,68,64,61,93,76,44,29.87,29.81,29.75,10,9,0,18,8,23,0.00,,Fog,154
2012-12-8,85,76,68,69,66,63,91,75,48,29.88,29.82,29.78,10,8,4,18,8,25,0.00,,,152
2012-12-9,84,77,70,70,68,65,91,76,53,29.89,29.82,29.75,10,8,2,15,8,21,0.00,,,159
2012-12-10,75,62,49,70,43,22,91,55,23,30.12,29.98,29.78,10,9,3,23,10,40,0.00,,Rain,353
2012-12-11,57,52,47,36,31,24,59,45,31,30.24,30.13,30.05,10,10,10,10,4,,0.00,,,10
2012-12-12,69,56,42,46,35,26,79,49,29,30.31,30.24,30.21,10,10,7,10,4,16,0.00,1,,13
2012-12-13,71,62,52,59,53,46,80,67,54,30.24,30.18,30.12,10,10,10,15,4,23,0.00,8,,97
2012-12-14,79,73,67,68,64,59,83,72,60,30.11,30.00,29.88,10,10,10,22,9,30,0.00,6,Rain,143
2012-12-15,88,80,71,70,66,62,85,72,42,29.92,29.86,29.79,10,9,7,18,11,25,0.00,1,,174
2012-12-16,86,78,70,70,66,63,85,70,49,29.85,29.79,29.71,10,8,5,14,8,20,0.00,4,,211
2012-12-17,82,70,57,62,49,32,82,54,17,30.03,29.93,29.84,10,10,7,12,6,16,0.00,0,Rain,342
2012-12-18,86,70,54,68,58,44,84,65,39,29.97,29.89,29.79,10,10,10,20,9,28,0.00,2,,170
2012-12-19,86,79,72,69,68,66,87,73,51,29.83,29.76,29.68,10,8,5,24,16,34,0.00,5,,167
2012-12-20,72,59,46,69,23,7,90,29,11,30.50,30.26,29.79,10,8,4,26,14,38,0.00,2,,335
2012-12-21,68,52,37,42,28,10,70,39,15,30.54,30.44,30.33,10,10,10,8,4,9,0.00,0,,50
2012-12-22,75,62,48,60,52,42,82,68,49,30.33,30.22,30.10,10,10,10,18,5,30,0.00,3,,147
2012-12-23,85,73,61,62,57,53,83,63,34,30.09,29.99,29.89,10,10,10,23,11,31,0.00,0,,172
2012-12-24,81,70,60,65,61,56,88,70,48,29.95,29.84,29.71,10,10,10,17,10,24,0.00,0,,168
2012-12-25,86,72,54,65,47,22,85,48,13,30.12,29.76,29.63,10,10,7,18,13,28,0.00,0,,262
2012-12-26,56,46,37,34,24,19,78,42,26,30.30,30.18,30.10,10,10,10,15,8,20,0.00,0,,10
2012-12-27,67,54,41,52,43,33,80,63,50,30.08,29.90,29.78,10,10,10,6,1,,0.00,6,,8
2012-12-28,72,62,53,58,45,32,87,60,23,30.14,29.89,29.74,10,10,7,17,5,24,0.00,2,,337
2012-12-29,59,51,43,36,26,17,58,41,20,30.46,30.37,30.15,10,10,10,15,9,24,0.00,1,,12
2012-12-30,71,56,41,57,39,24,69,53,36,30.42,30.28,30.13,10,10,10,15,5,21,0.00,5,,66
2012-12-31,80,72,65,64,60,57,80,68,49,30.12,29.98,29.87,10,10,10,23,11,30,0.00,4,,165